Theta_e
305 307 306 307 306 308 308 308 308 308 306 308 309 307 306 303 304 304 299 300 296 295 295 296 296 295 295 294 296 295 294 294 294 294 295 295 294 295 295 295 296 295 293 294 295 297 296 296 296 295 295 294 294 294 294 295 294 294 293 293 292 292 291 291 290 290 293 295 295 295 297 295 295 294 292 292 290 288 289 288 287 287 287 287 287
305 306 305 306 306 307 307 305 307 305 305 304 304 303 301 299 299 297 297 295 294 296 297 295 293 295 295 295 294 294 294 298 293 293 295 294 294 294 294 294 295 295 293 296 295 296 296 295 295 294 293 293 293 293 294 293 293 293 293 293 293 293 293 291 291 290 290 293 293 294 293 293 293 294 293 293 293 292 290 290 289 288 288 288 288
305 304 305 304 304 303 303 303 303 301 302 298 298 298 297 297 295 296 295 296 293 295 295 294 295 293 293 292 295 292 295 294 292 293 293 294 295 293 293 294 295 295 295 296 296 295 295 294 294 293 295 293 293 293 293 292 292 292 293 293 292 293 293 292 291 290 290 292 294 294 294 292 291 293 292 292 292 292 292 291 290 289 288 288 288
304 304 303 302 301 298 299 299 299 297 298 295 296 295 294 294 293 294 293 294 293 293 293 293 293 292 292 291 291 292 291 290 291 291 294 293 293 294 293 293 294 295 296 296 295 294 294 294 293 293 292 292 293 292 292 291 292 292 292 293 293 293 293 293 292 291 291 290 292 293 294 293 293 293 292 292 291 291 291 291 290 289 288 288 288
301 300 299 299 297 298 296 295 296 295 295 294 293 292 292 292 292 293 292 293 293 292 293 292 292 292 294 292 292 291 290 290 291 290 290 291 292 292 292 293 294 295 297 297 294 295 295 294 294 293 292 292 292 291 291 291 292 292 292 293 293 293 293 293 292 292 291 290 291 293 293 293 293 293 292 291 292 291 291 290 290 290 289 288 288
299 299 297 299 297 296 295 292 294 294 293 292 291 291 291 293 292 292 292 295 292 292 292 291 292 290 290 289 289 289 288 289 289 290 289 289 289 290 291 291 293 295 296 296 296 296 295 295 294 292 292 292 292 292 291 291 291 291 291 292 292 292 292 292 292 291 291 291 291 291 293 292 292 292 292 291 290 290 291 292 291 289 288 287 287
297 298 295 295 294 293 292 293 292 291 290 291 292 291 292 291 292 293 290 291 291 292 291 291 290 291 290 290 291 290 290 289 289 288 288 289 289 290 289 290 291 293 294 294 295 296 295 295 295 294 293 293 292 292 292 291 292 291 292 292 292 291 291 291 291 290 290 290 291 291 291 292 291 291 292 291 291 291 290 290 289 290 288 287 288
294 294 293 292 292 292 290 289 289 290 290 289 290 290 290 290 290 289 289 290 290 290 290 291 289 289 290 291 290 290 291 290 289 288 288 288 288 288 288 289 289 289 289 289 289 291 293 294 294 294 294 294 293 293 292 292 292 291 292 291 291 291 291 290 290 290 290 290 290 290 291 291 291 291 291 289 288 288 288 288 288 289 290 289 288
292 292 291 291 291 290 289 289 289 288 289 289 290 289 289 288 288 288 288 288 288 287 287 288 289 290 288 288 289 288 290 289 289 289 289 288 288 288 287 288 287 287 288 287 287 288 289 290 291 292 292 291 291 292 293 293 294 292 292 291 291 290 290 290 290 290 290 290 289 290 290 290 290 290 290 289 288 289 290 288 288 289 289 289 290
292 290 290 289 288 288 288 288 288 289 289 289 288 287 288 287 288 287 287 287 287 286 287 288 288 289 289 288 287 288 288 288 289 292 293 289 288 288 287 286 286 285 285 286 286 286 288 288 290 289 289 289 289 290 292 292 292 293 293 292 291 291 290 290 290 290 290 289 289 289 289 289 290 290 290 291 291 291 289 288 287 289 289 289 289
289 289 289 288 288 288 289 288 288 288 287 287 287 288 287 287 287 287 286 286 286 286 288 288 288 287 288 288 288 287 287 288 291 294 295 295 290 287 287 287 286 285 285 286 287 287 287 288 289 289 289 289 290 290 291 291 292 292 292 292 292 292 291 290 290 290 289 289 289 289 289 289 290 291 290 291 291 289 289 289 289 288 288 287 286
290 289 288 288 288 288 287 287 287 286 287 286 286 285 286 286 286 285 286 287 286 286 287 287 287 286 287 287 287 286 286 289 292 293 294 295 294 289 286 286 286 285 285 285 286 286 287 288 288 290 289 289 289 289 289 290 291 291 291 292 292 292 293 291 290 290 289 289 289 289 289 289 290 290 290 289 289 289 289 288 288 288 287 287 287
289 288 288 287 287 287 287 287 286 286 285 285 285 286 286 286 285 285 286 285 285 287 286 286 286 284 286 286 285 284 284 289 292 293 293 294 294 291 287 285 284 285 285 286 286 287 287 287 288 289 290 288 288 288 287 287 288 289 290 290 290 291 292 293 293 291 291 290 289 289 290 290 289 289 289 289 289 288 288 288 288 288 287 287 287
287 286 286 286 286 286 286 286 286 285 285 285 285 285 285 284 283 284 283 284 284 284 284 285 284 284 284 285 284 284 283 287 291 292 292 293 293 292 285 284 284 285 286 287 287 286 286 287 287 287 287 288 288 288 288 287 287 287 286 287 287 288 289 290 291 291 291 291 290 289 291 291 290 291 291 290 289 288 288 288 288 288 288 287 288
285 285 285 285 285 285 285 285 285 284 284 284 284 284 284 284 284 283 284 284 285 285 285 285 284 284 283 283 284 285 285 289 291 292 292 292 293 292 285 284 285 285 286 286 286 286 286 286 286 287 287 287 288 288 288 288 287 287 287 287 287 287 287 287 288 289 289 290 290 290 291 291 291 292 292 291 289 289 289 288 289 288 288 289 288
283 283 283 283 283 283 283 283 283 283 283 283 283 283 283 283 284 283 283 283 282 282 283 283 284 285 284 284 284 285 284 290 290 290 291 292 293 287 285 284 284 285 286 286 285 285 286 286 287 287 287 287 288 289 290 289 287 287 287 287 287 287 287 287 289 290 289 290 290 290 291 291 292 290 290 290 290 290 290 290 289 288 286 286 285
282 282 282 282 282 282 282 283 282 282 282 282 282 282 283 283 283 283 283 283 283 283 283 283 283 284 284 284 284 285 285 287 289 289 290 291 290 287 286 284 284 284 284 284 285 286 286 287 287 287 287 287 288 290 291 290 288 287 287 286 287 287 287 287 289 290 291 291 292 292 293 293 293 293 293 294 291 291 290 288 287 288 286 284 284
281 281 281 282 282 282 282 282 282 281 281 281 281 282 282 282 282 283 283 283 283 283 283 284 284 283 283 284 284 284 285 286 288 289 290 290 289 287 286 285 285 285 285 285 285 285 286 286 286 286 286 287 289 290 291 289 287 287 286 286 286 286 286 287 287 287 289 290 290 291 291 291 292 292 292 292 292 291 288 286 287 287 285 285 284
281 281 281 281 281 281 281 281 281 281 281 281 281 282 282 282 281 281 282 282 282 282 283 283 283 284 283 283 284 285 285 286 288 289 290 290 289 286 286 285 285 285 285 285 285 285 285 285 285 286 287 287 289 289 289 288 286 286 286 286 285 285 286 287 287 286 287 287 287 287 287 288 288 288 288 290 290 289 288 287 287 286 284 285 285
280 280 281 281 281 281 281 281 281 281 281 281 281 282 281 281 281 282 282 282 282 282 282 283 283 284 284 284 285 285 285 286 287 289 289 290 290 288 286 285 285 285 285 285 285 285 285 285 285 287 288 288 288 288 288 288 286 286 286 285 285 284 286 286 286 286 286 286 286 287 287 287 287 287 287 287 287 287 288 287 287 287 285 285 284
280 280 280 280 280 280 280 280 280 280 280 280 281 281 281 281 281 281 281 281 281 282 282 282 283 283 284 285 285 285 286 285 286 288 288 289 289 288 286 286 285 285 284 284 284 284 284 284 285 286 287 287 287 287 288 288 288 286 285 285 285 286 287 286 286 286 286 286 286 286 287 287 287 287 287 287 287 287 287 287 287 287 286 284 284
279 279 279 278 278 278 278 279 279 279 279 279 279 280 280 280 281 280 280 280 281 281 280 282 282 283 284 285 285 285 285 285 285 286 287 287 287 287 285 284 285 284 283 283 283 283 283 284 284 285 286 286 287 287 288 288 288 286 286 287 288 288 286 286 286 286 286 285 285 285 286 286 286 286 286 287 287 287 287 287 287 286 286 286 285
278 277 277 276 276 276 276 276 277 277 277 278 278 278 278 279 279 279 279 279 279 280 280 281 282 282 283 284 284 284 284 284 285 284 286 286 286 286 286 285 286 284 283 282 282 282 283 284 284 285 286 286 286 287 287 288 287 286 287 288 287 288 287 286 285 285 284 284 284 284 284 285 285 285 286 286 286 287 286 286 286 286 285 285 285
276 275 275 275 275 275 275 275 275 275 276 276 276 276 276 276 277 278 278 278 278 278 279 280 281 281 281 281 282 282 283 283 284 284 284 285 285 285 286 286 285 284 284 283 283 283 283 283 284 286 286 286 287 287 287 287 286 287 287 287 287 287 285 285 284 284 284 284 283 283 284 285 285 285 285 286 286 286 286 286 285 285 285 285 285
273 273 273 273 273 273 273 273 274 274 274 274 275 275 275 275 276 277 277 277 277 277 278 279 279 279 279 279 280 280 281 282 282 283 284 283 284 285 285 285 285 285 284 283 284 284 284 286 286 286 286 286 287 287 286 286 287 287 287 287 286 285 285 284 284 284 283 283 283 283 284 284 285 285 286 286 286 285 284 283 283 281 279 279 279
272 271 271 271 271 271 271 272 272 273 273 274 274 274 274 274 275 274 275 276 277 278 277 278 278 278 278 278 278 279 280 281 281 282 283 283 283 284 285 285 284 285 284 284 284 285 285 285 285 285 285 285 285 285 285 285 286 286 286 285 285 285 284 284 283 283 282 283 283 283 283 284 284 285 285 285 283 283 283 282 282 280 279 278 278
271 270 270 270 270 270 271 272 272 273 272 273 273 274 273 273 274 275 276 277 277 278 278 278 277 277 277 277 278 279 279 280 280 281 282 282 282 283 284 283 284 284 283 283 283 284 284 284 284 285 285 286 285 285 285 285 285 285 285 284 284 284 284 284 283 283 283 283 283 283 283 284 284 284 283 283 282 282 282 281 280 280 279 278 277
269 269 269 269 270 270 271 274 273 272 273 273 273 274 275 276 276 276 276 276 276 277 277 277 277 277 277 278 278 278 279 279 280 280 281 282 282 282 282 281 281 281 281 282 283 283 284 284 284 284 284 284 284 284 285 285 285 285 284 284 284 284 284 284 284 284 283 283 283 283 283 283 282 282 282 282 281 281 281 279 279 278 278 276 274
269 268 269 269 270 271 272 272 273 273 274 275 275 276 276 276 276 276 277 277 277 277 277 277 278 278 278 278 278 277 278 279 280 282 281 281 280 279 279 279 280 281 282 284 284 284 284 283 283 283 283 283 283 283 283 284 284 284 283 283 283 283 283 282 281 281 282 282 281 281 281 281 281 282 281 281 280 280 279 278 278 278 276 276 274
270 270 270 271 271 271 272 273 273 273 273 273 274 274 277 279 278 277 276 279 281 281 281 278 279 279 279 279 280 278 278 278 280 280 280 280 281 281 282 283 283 283 283 284 283 282 282 281 282 282 282 282 282 282 282 283 282 282 282 283 282 282 282 282 282 282 282 282 282 281 281 281 280 281 280 280 279 279 278 278 277 277 275 274 274
269 269 269 269 270 270 270 270 271 271 272 272 272 273 273 275 278 279 279 279 280 280 281 281 281 280 279 278 279 279 279 279 279 279 279 280 281 281 281 282 282 283 283 282 280 280 280 280 281 281 281 281 281 280 280 280 280 280 280 281 281 281 281 281 281 282 282 281 281 281 281 281 280 280 280 279 279 278 277 277 277 276 275 274 274
267 268 268 269 270 270 269 269 269 269 270 270 271 271 271 271 272 277 278 278 279 279 279 279 279 279 280 279 276 274 276 277 278 278 279 279 279 279 280 281 281 282 282 282 278 278 279 279 279 278 279 278 278 278 279 278 279 279 279 279 279 280 280 280 281 281 281 281 281 280 280 280 280 280 280 279 278 277 277 275 275 274 274 274 274
267 268 268 269 268 268 268 267 267 267 268 270 270 271 271 271 271 271 274 277 278 278 278 277 277 278 278 277 276 275 275 276 277 278 277 277 278 278 279 279 280 280 280 277 276 276 277 277 276 277 277 276 277 277 277 277 278 278 278 278 278 279 280 280 281 281 281 281 281 280 280 280 280 280 279 278 277 276 276 275 275 274 274 273 273
268 267 267 266 266 265 265 265 267 269 270 270 271 271 271 271 271 271 271 271 273 274 275 275 275 275 275 275 274 274 275 275 276 276 276 276 276 276 276 275 276 277 276 272 272 272 272 272 272 272 273 274 275 275 276 276 276 276 277 277 277 279 278 278 279 279 279 280 280 280 280 280 280 279 278 278 278 277 276 275 274 273 273 273 273
266 267 267 267 264 264 266 267 268 269 270 270 270 271 271 271 271 271 270 270 269 269 269 270 272 274 271 271 273 273 274 274 275 275 274 274 274 274 272 269 268 269 269 269 269 269 269 268 268 269 270 270 272 274 274 273 273 273 274 275 276 276 276 276 277 277 277 277 278 279 279 279 279 279 278 277 277 276 275 275 274 274 273 273 273
265 263 263 264 264 265 266 267 267 268 269 270 270 270 270 270 270 269 269 269 269 268 267 267 267 269 270 270 271 272 273 273 273 273 273 273 272 271 265 265 265 266 266 266 267 267 267 266 266 266 267 268 270 271 272 271 271 271 272 273 273 274 274 275 275 275 275 275 276 277 277 278 279 279 278 278 277 276 276 275 275 274 274 274 273
263 263 264 264 264 265 266 266 268 269 270 269 269 269 269 269 269 268 268 267 267 267 266 265 266 265 266 266 268 269 271 271 271 270 270 270 270 266 264 264 264 264 264 264 265 265 264 264 264 264 265 265 267 268 269 268 269 269 270 270 270 271 273 273 273 273 273 273 274 274 274 275 276 277 278 277 277 276 276 276 275 275 274 274 274
262 264 264 266 265 265 266 266 267 268 268 268 268 268 267 267 267 267 266 266 266 265 264 264 265 263 261 263 266 267 266 267 268 266 267 267 264 263 262 262 263 262 262 262 263 263 263 263 263 263 263 264 265 265 266 266 267 267 267 267 268 269 271 271 271 271 271 271 271 271 272 272 274 275 276 276 276 276 276 276 275 274 274 274 274
263 267 268 268 268 266 265 265 265 265 265 266 266 266 266 266 265 265 264 264 263 264 263 261 260 260 260 263 264 266 263 261 261 261 262 263 263 262 262 261 261 261 261 261 262 262 262 262 262 262 262 263 263 263 264 264 264 265 265 265 266 267 267 268 268 268 267 267 268 269 270 270 272 273 274 274 275 276 276 276 275 275 274 273 273
261 263 265 266 265 266 265 265 264 263 264 264 265 265 265 264 263 263 262 261 260 261 260 260 259 258 260 261 264 264 260 260 260 261 261 261 261 261 261 260 260 260 260 260 260 261 261 261 261 261 261 262 262 262 263 263 263 264 264 264 263 264 265 265 265 264 264 265 265 266 267 268 270 271 272 273 274 275 275 275 275 275 274 274 274
260 262 265 265 265 263 264 263 262 262 261 262 262 262 262 263 261 261 259 259 259 259 258 257 256 257 259 264 266 266 259 257 257 258 259 260 260 259 258 257 258 258 259 259 260 260 260 260 260 260 260 261 261 261 262 262 262 263 263 263 263 263 263 263 263 263 263 263 263 264 266 267 268 269 270 271 273 273 274 275 275 275 274 274 274
259 260 262 262 263 261 260 261 260 262 259 261 258 259 261 260 259 258 259 259 259 258 256 255 255 256 261 264 264 265 259 255 256 257 257 257 257 256 257 255 255 254 255 256 257 258 259 259 260 260 259 260 260 260 261 260 261 261 261 262 262 262 262 262 262 262 262 262 262 263 264 266 267 269 270 271 271 272 273 273 274 274 274 273 273
259 259 259 260 260 260 259 258 258 256 257 257 257 262 261 258 257 258 257 258 257 257 256 256 256 256 258 263 262 263 256 253 258 256 255 256 255 256 255 255 255 254 254 254 255 256 257 258 258 259 259 259 259 259 259 260 260 260 261 261 262 262 262 262 262 262 262 262 262 263 263 264 266 267 268 269 270 271 271 272 272 273 273 273 272
258 258 259 259 258 258 258 256 256 257 256 259 260 259 259 257 256 255 254 254 255 255 255 254 255 255 254 257 258 256 253 253 253 253 254 256 255 256 255 255 255 255 254 254 255 254 255 255 256 257 257 258 258 259 259 259 260 260 260 261 261 262 262 262 262 261 262 262 262 262 262 263 265 266 268 269 269 269 270 270 271 271 271 272 271
255 256 256 255 256 254 255 255 256 255 258 257 254 254 257 255 254 254 255 254 255 255 254 254 255 254 254 254 253 254 253 253 255 255 255 254 254 255 255 255 254 255 254 254 254 254 253 254 255 255 255 256 256 257 257 258 258 259 259 260 261 261 262 262 262 262 262 262 262 262 262 262 263 265 266 267 268 268 268 269 269 269 270 270 270
253 254 256 255 255 256 254 252 257 253 254 254 253 251 251 252 251 253 254 254 255 254 253 253 253 253 254 253 253 254 254 252 253 253 255 254 254 255 254 254 254 254 254 254 253 253 254 254 254 254 254 255 255 255 256 256 256 257 258 260 261 262 263 263 262 262 262 262 262 261 261 262 263 265 266 266 266 267 267 268 268 269 269 269 270
251 253 255 255 254 255 255 256 253 254 253 253 254 253 252 252 252 254 256 255 254 255 253 252 252 252 253 252 253 253 254 254 254 254 254 254 253 254 254 253 254 254 254 254 251 253 253 254 254 254 254 254 254 254 255 255 255 256 257 258 260 261 262 262 262 261 262 262 262 261 261 261 262 263 264 265 265 266 266 266 267 267 267 268 268
251 252 253 254 253 253 253 252 253 257 253 253 253 253 254 253 252 253 252 252 252 252 252 251 251 251 253 253 253 253 254 253 254 254 254 254 253 253 253 252 254 254 254 254 253 253 253 253 253 253 253 254 254 254 254 254 254 254 255 257 259 260 262 262 262 261 262 262 261 260 260 260 261 262 263 264 264 264 265 265 266 266 266 266 267
251 251 251 252 253 253 252 252 254 252 251 251 252 251 252 251 252 251 251 251 251 251 250 251 252 251 251 253 253 253 253 254 253 253 253 253 253 253 253 253 253 253 253 253 253 253 253 252 253 253 253 253 253 253 253 254 254 254 254 255 257 260 261 262 261 261 261 262 261 259 259 259 260 261 262 262 262 263 264 264 264 264 265 265 265
250 252 251 252 252 252 252 251 250 248 250 251 249 250 251 251 250 251 251 251 251 250 250 250 252 251 251 252 253 253 253 253 253 253 253 253 253 252 253 253 252 253 252 252 253 253 252 251 252 252 252 252 252 253 253 253 253 254 254 255 258 260 261 261 261 261 261 261 259 257 257 257 258 259 260 261 261 261 262 263 263 264 264 264 264
251 251 251 251 250 251 250 249 248 248 247 248 248 248 250 250 251 250 250 250 251 251 251 251 250 251 252 251 252 252 252 252 253 253 253 253 253 253 253 253 253 253 253 253 253 252 252 251 252 252 252 253 253 253 253 253 253 253 255 258 260 260 260 261 261 261 261 262 258 256 255 255 256 257 258 258 259 259 261 261 262 262 262 263 263
Wind_Speed
7 7 6 6 6 8 7 7 7 6 5 7 8 7 6 5 5 5 4 4 4 4 5 4 4 5 4 4 5 5 5 5 4 5 5 6 6 6 5 6 7 6 5 5 4 5 6 7 7 7 6 7 6 6 6 6 6 6 6 6 7 6 7 8 12 15 11 7 10 10 8 6 10 7 10 8 7 7 9 9 8 7 8 8 9
7 6 6 6 6 6 7 5 6 5 5 5 5 5 4 4 4 4 5 4 4 4 5 4 5 5 5 5 4 4 4 4 4 5 5 5 5 5 5 6 6 6 4 6 5 5 5 7 7 6 5 7 6 7 7 6 7 7 7 7 8 8 7 8 10 10 17 5 8 7 8 4 11 5 9 10 9 7 9 9 7 8 9 9 8
6 5 6 5 5 5 5 5 5 5 6 5 5 4 4 3 3 4 4 4 3 4 5 5 5 5 4 4 4 4 5 5 4 5 5 5 6 5 5 5 6 6 6 7 6 6 6 7 7 5 5 6 7 7 6 6 5 7 8 6 8 8 7 8 9 13 14 14 8 11 8 4 7 9 7 7 7 6 9 9 8 7 7 9 9
6 6 5 5 5 5 5 5 5 5 5 4 5 3 2 3 3 4 4 3 4 3 4 4 4 4 4 4 4 4 3 4 4 4 5 5 5 6 5 6 6 6 7 7 6 6 7 7 6 5 5 7 7 6 5 6 6 7 8 8 8 9 8 7 10 10 12 13 13 8 9 7 8 6 7 6 7 8 8 10 6 8 8 9 10
5 5 5 5 5 5 5 4 5 5 5 4 4 3 3 3 3 4 4 3 3 4 1 2 4 4 5 4 4 2 3 3 3 3 3 4 5 5 5 5 6 6 7 6 6 6 6 7 6 5 5 7 7 6 5 7 7 7 9 8 8 8 7 8 9 9 12 15 15 10 7 8 7 8 6 8 9 8 8 10 9 10 9 9 8
5 6 5 6 5 5 5 5 5 5 5 4 5 4 4 4 4 3 4 4 2 1 3 1 3 4 4 3 1 0 0 0 2 3 3 3 3 4 4 5 5 5 6 5 5 5 6 7 6 5 6 7 8 6 6 7 7 7 8 8 8 8 9 9 9 9 11 14 13 15 9 8 9 8 7 7 8 11 10 9 9 7 9 9 9
5 5 5 5 5 5 5 5 5 5 5 5 5 4 4 4 4 4 3 4 4 3 1 1 0 2 1 1 1 0 0 0 1 2 2 2 3 4 4 4 4 5 4 5 5 5 6 6 6 6 7 7 8 8 7 7 7 8 9 9 8 8 9 9 8 9 11 12 13 12 12 8 7 12 6 6 8 8 10 11 12 6 8 9 11
5 5 5 5 5 5 4 4 4 4 4 4 4 4 3 3 3 3 3 3 3 3 2 2 0 0 0 0 0 0 0 1 1 1 1 2 2 4 4 4 4 5 5 4 4 5 5 6 6 7 8 8 8 8 7 8 6 8 8 7 7 8 9 8 8 8 10 11 12 12 10 10 8 8 6 3 6 7 5 9 14 12 9 8 9
5 4 4 4 2 2 2 2 2 3 3 3 3 3 3 4 3 4 3 3 2 2 2 2 1 0 1 1 1 1 1 2 2 2 2 3 2 3 4 4 4 4 5 5 4 4 5 5 6 6 8 10 12 11 11 10 8 9 8 6 8 8 9 8 8 8 10 10 13 10 10 11 9 9 9 7 8 11 7 6 11 11 9 12 10
5 4 3 3 3 3 4 4 4 4 4 4 4 4 4 3 4 3 3 3 3 3 3 3 1 0 1 1 1 1 1 2 3 4 5 3 4 3 3 4 4 4 4 5 5 4 5 5 6 10 12 12 13 14 15 15 16 13 11 7 8 8 9 9 9 8 9 12 12 10 11 12 11 8 10 10 8 7 7 6 11 12 10 12 13
5 5 5 4 4 4 5 5 4 5 4 4 4 4 4 4 4 4 3 3 3 3 3 1 0 0 1 2 2 2 2 2 4 5 6 7 5 4 4 4 4 4 4 4 6 6 6 6 6 7 8 9 10 13 14 15 16 17 19 18 14 12 10 11 11 9 10 12 11 10 11 14 14 9 10 11 8 8 9 8 10 10 10 12 16
7 6 5 5 5 6 5 5 6 4 5 4 4 4 4 5 4 3 3 3 3 3 2 0 0 1 1 1 2 3 3 5 5 6 6 7 6 4 4 4 4 4 4 5 6 6 8 8 6 5 6 7 7 8 9 12 14 16 17 17 18 19 18 14 13 11 11 11 13 12 11 12 14 9 8 8 9 8 8 8 10 10 12 12 12
7 7 7 7 6 6 6 6 5 5 4 4 4 4 5 4 4 4 3 2 2 2 0 0 1 2 1 2 3 3 3 5 5 6 6 7 7 6 4 4 4 4 4 5 6 6 6 8 8 6 6 9 8 7 7 8 10 13 14 15 16 17 18 20 20 17 13 14 14 16 13 10 14 12 5 6 5 10 7 8 8 8 10 12 13
9 8 8 6 5 6 6 6 6 5 5 5 5 5 5 5 3 2 3 3 3 2 1 0 1 1 2 2 3 3 3 5 6 7 7 7 6 5 3 3 4 4 5 5 6 6 6 7 8 9 6 6 7 8 7 7 8 8 8 7 8 10 12 16 18 21 19 15 15 17 16 8 12 14 10 6 10 12 11 12 10 11 12 14 14
8 7 7 6 6 6 6 6 7 6 6 6 6 6 5 4 4 3 3 3 3 1 1 1 2 2 3 3 3 4 4 6 7 7 7 7 6 5 2 2 4 4 4 4 5 5 6 7 7 9 9 8 7 9 9 9 9 9 9 9 9 8 8 8 9 10 10 11 13 15 16 13 12 13 12 8 8 9 10 13 14 14 13 13 14
8 7 8 7 6 5 6 6 6 6 6 6 6 5 5 4 5 3 4 4 3 3 3 2 4 5 4 4 5 5 4 4 6 7 8 7 6 2 2 2 3 4 5 4 4 5 5 7 8 9 9 9 10 13 12 11 10 11 12 11 10 9 8 8 13 13 12 11 11 13 13 13 15 13 13 12 12 11 12 12 12 11 11 13 15
8 7 7 7 6 6 5 7 7 6 5 6 6 5 4 4 4 3 5 4 4 5 4 4 4 5 5 4 5 6 6 6 8 9 9 9 5 3 3 3 3 4 5 4 4 4 4 6 7 8 9 9 11 14 15 15 11 12 12 13 11 9 9 6 11 15 17 19 20 21 22 22 22 22 22 24 17 14 12 13 14 10 11 13 14
6 7 7 6 6 6 6 6 6 5 5 6 5 4 3 3 4 3 5 5 5 5 3 4 4 4 5 5 5 6 7 10 11 10 9 9 6 4 4 4 5 5 5 3 3 3 4 8 8 7 8 9 13 18 18 13 11 11 11 13 14 12 10 7 6 7 13 17 18 19 20 21 22 23 24 23 23 17 12 14 14 12 13 11 13
6 7 7 6 6 6 5 6 5 5 6 5 4 5 5 4 3 3 4 4 4 3 4 5 5 5 5 5 7 6 6 9 12 14 13 11 7 4 4 4 5 5 5 5 2 2 4 3 6 8 8 11 19 19 20 14 11 11 11 12 14 14 11 8 9 10 9 9 9 10 11 14 13 13 14 20 20 18 14 15 12 12 13 13 13
5 5 5 6 5 6 5 6 6 6 6 5 5 5 3 4 5 5 5 5 5 5 5 6 6 6 5 5 6 6 7 9 12 18 18 18 15 7 4 5 8 8 7 7 9 7 5 6 7 12 16 18 18 19 18 20 13 11 10 11 13 16 11 11 12 11 13 12 12 12 13 12 11 11 11 12 13 14 14 13 13 12 12 12 11
5 5 6 6 7 6 5 6 7 6 5 4 4 5 5 5 5 6 6 5 6 6 6 5 5 5 5 5 6 7 7 8 10 17 19 18 20 16 7 9 9 9 9 9 8 10 10 8 7 11 17 18 19 20 20 20 18 12 10 10 11 15 18 14 14 15 13 13 13 12 11 10 10 10 10 11 11 11 11 12 12 11 11 11 11
5 6 7 8 7 7 7 6 6 6 5 5 6 7 6 5 6 5 5 5 7 7 5 5 5 5 5 5 7 7 8 11 9 12 16 18 18 19 10 8 11 9 11 9 9 8 9 9 8 12 18 19 21 21 22 21 22 12 11 19 23 24 16 13 12 11 11 11 11 11 11 10 10 9 10 10 10 10 10 10 10 10 10 11 11
5 7 7 8 8 7 7 8 7 6 6 6 6 7 5 7 7 6 6 6 7 7 7 6 5 5 5 6 6 7 7 7 13 9 12 17 18 17 18 13 17 9 8 10 9 9 8 9 9 13 18 22 22 22 21 23 17 11 21 23 23 24 19 11 11 11 11 11 10 11 11 10 10 10 10 10 9 9 8 8 9 10 9 9 9
5 7 8 7 7 8 7 7 7 6 7 6 7 8 8 6 6 7 6 6 7 7 6 6 5 6 7 6 7 7 6 6 9 12 11 17 17 18 17 18 17 10 9 8 9 9 9 9 11 18 22 22 23 22 22 20 14 20 21 22 22 19 12 10 10 10 11 11 11 10 11 10 10 10 10 9 9 9 9 8 8 8 8 7 7
7 8 8 7 7 6 7 7 7 6 6 6 7 7 6 6 7 6 6 6 6 6 5 5 6 5 5 5 5 5 6 5 5 7 9 10 13 14 15 17 17 17 11 8 8 9 14 20 23 23 22 23 22 20 16 15 18 17 19 19 18 10 10 9 10 10 10 10 10 10 10 10 10 11 11 10 10 9 7 6 6 5 4 4 4
9 9 7 7 6 5 7 6 6 6 6 6 7 6 6 6 6 5 5 5 5 5 4 4 4 4 4 4 4 4 5 4 5 5 5 7 7 11 14 14 13 14 13 12 15 20 21 22 23 21 17 16 12 10 10 11 16 19 19 17 10 8 8 8 8 9 9 10 10 11 11 10 10 11 11 10 9 10 9 8 7 6 5 5 5
8 7 7 6 5 5 7 6 6 6 6 6 6 5 5 5 5 5 5 5 4 4 4 4 3 4 4 4 4 5 5 5 5 5 6 6 6 7 8 8 11 12 9 9 10 10 12 13 12 17 16 19 17 15 13 13 11 9 6 5 5 6 6 7 8 10 10 10 11 11 10 10 10 10 9 9 9 8 7 7 7 6 4 4 5
7 7 6 5 6 5 6 6 6 6 5 5 5 5 5 4 5 5 5 5 4 5 5 5 4 4 3 5 5 6 6 6 6 8 8 9 9 9 10 10 10 9 10 9 10 11 11 11 12 9 9 9 8 7 7 7 8 7 7 7 7 7 8 11 10 9 9 9 10 10 10 9 10 10 9 9 9 8 6 5 6 6 4 3 3
6 6 5 5 6 5 5 5 4 4 4 4 5 5 5 5 5 5 4 3 4 3 3 4 4 4 4 6 7 6 6 7 9 14 14 17 14 12 10 9 9 9 11 18 13 11 9 8 8 8 8 9 8 8 8 8 8 8 8 8 7 8 8 7 8 9 10 9 10 10 10 10 10 9 9 9 8 8 5 5 6 6 4 3 6
6 6 5 5 4 4 4 4 4 5 5 5 4 5 8 10 8 6 5 8 11 10 8 5 6 6 6 6 6 7 8 10 18 20 19 18 18 18 17 18 17 14 16 21 14 9 8 8 8 8 8 8 8 8 8 8 9 9 9 10 9 7 8 8 9 9 10 10 10 10 10 10 10 10 9 9 9 7 5 5 5 4 4 5 5
5 4 4 4 4 4 4 4 4 5 5 4 5 4 4 5 11 14 12 10 11 12 13 14 15 14 9 5 9 16 17 19 19 19 19 18 18 18 18 18 18 18 18 13 8 8 8 8 8 8 8 9 9 9 10 10 10 10 10 10 9 9 9 9 9 10 10 10 10 10 9 9 10 9 9 9 9 8 5 4 4 4 5 5 5
5 4 4 4 4 5 4 4 4 4 4 4 4 5 4 4 4 9 12 11 12 13 15 16 16 15 16 16 13 8 13 17 19 18 18 19 19 20 19 18 16 17 17 15 7 7 8 7 7 8 9 9 9 9 8 9 9 9 9 10 9 9 10 10 11 11 10 10 10 10 9 9 9 9 9 9 8 7 6 5 4 5 5 4 5
5 5 5 5 5 5 4 4 4 3 4 4 4 4 4 5 5 5 6 9 11 12 15 16 17 16 16 17 19 15 14 16 18 18 19 20 21 20 18 16 15 17 16 10 8 8 9 9 9 9 9 10 10 9 8 8 9 9 9 9 10 10 9 11 13 11 10 10 10 10 9 9 9 9 8 8 7 7 6 5 5 5 5 5 5
5 4 4 3 4 4 3 3 3 3 3 3 3 4 4 4 4 4 5 5 6 7 11 15 16 16 15 16 17 17 17 18 18 19 20 20 21 20 16 11 14 16 15 9 9 8 9 9 9 9 9 10 10 10 10 10 10 10 10 10 10 9 10 11 10 11 11 11 10 10 10 9 8 9 8 8 6 6 6 6 5 5 5 5 5
5 7 8 5 2 3 2 2 3 3 3 4 4 4 5 5 5 5 6 6 6 7 8 8 11 15 12 11 16 17 18 18 18 18 19 20 20 17 11 7 9 9 8 8 8 8 9 9 9 10 10 11 11 10 10 11 11 11 11 11 10 9 10 10 9 10 10 11 12 11 11 11 10 8 8 8 7 6 6 6 5 6 6 5 5
4 3 2 3 2 2 2 3 2 3 5 5 5 4 5 5 6 6 6 5 5 5 5 6 6 10 16 15 19 18 19 18 16 16 17 19 20 19 10 10 9 9 8 7 8 8 8 8 9 10 11 11 11 11 10 10 11 11 10 11 12 11 9 9 10 10 10 10 11 12 13 12 11 10 9 8 8 8 7 6 6 6 6 6 5
3 3 2 2 2 2 3 3 4 6 6 6 5 5 5 6 6 5 5 4 4 4 4 5 6 7 9 8 13 14 17 14 14 14 14 16 17 12 8 8 8 8 8 8 9 9 9 9 9 10 10 11 11 11 11 11 10 10 11 11 11 11 10 10 11 12 11 11 10 11 12 12 12 12 11 10 8 7 7 6 6 6 6 7 5
2 3 3 3 3 3 4 5 6 7 5 4 5 5 5 5 5 5 5 5 4 4 4 5 5 5 7 8 11 8 10 11 10 8 10 11 10 8 8 8 8 8 8 8 9 8 8 8 8 9 9 10 10 11 11 11 10 10 11 11 11 11 16 13 14 12 12 11 12 12 12 12 12 11 12 11 10 8 8 6 6 6 6 6 5
2 7 9 8 6 5 5 5 5 4 4 5 4 5 6 5 5 4 4 3 3 3 4 3 4 5 5 5 6 5 8 7 8 8 8 7 6 6 6 6 6 7 7 7 8 8 8 8 9 8 8 9 10 10 10 10 10 10 10 11 10 10 11 10 11 11 11 11 11 11 11 11 11 11 10 10 11 10 9 8 6 6 6 6 6
3 3 6 8 6 7 6 6 5 5 6 5 5 5 5 5 3 3 2 2 3 3 3 4 4 4 5 4 5 6 7 7 6 6 7 7 6 6 5 5 5 6 6 6 6 7 7 7 7 7 8 8 8 9 8 9 9 9 10 9 10 10 10 10 10 10 10 11 11 11 11 11 11 11 11 10 10 11 11 10 8 6 6 6 6
3 4 4 6 6 5 5 6 5 5 4 5 4 4 3 4 2 3 1 2 2 2 3 4 3 5 5 7 11 10 4 4 5 5 5 5 5 4 4 4 3 4 5 5 6 6 7 7 7 7 7 7 8 8 9 8 8 8 8 9 9 10 9 10 10 10 11 11 11 11 11 11 11 11 11 10 12 11 10 10 9 7 6 6 6
5 4 4 4 5 4 5 6 6 5 4 5 3 2 4 4 1 1 2 1 3 3 2 3 4 4 7 11 9 10 5 3 4 5 5 5 5 5 5 4 4 4 5 5 4 6 6 7 7 7 7 8 8 8 8 8 8 8 9 8 9 9 9 8 9 10 11 10 11 12 11 12 13 12 12 12 10 10 10 10 9 8 7 6 5
4 4 4 5 4 4 4 3 4 4 4 4 3 4 4 2 1 2 2 2 1 2 1 4 6 5 5 7 8 8 3 4 4 4 4 5 5 5 5 6 6 6 5 5 5 4 5 6 7 7 7 7 7 8 8 8 8 9 9 9 9 8 9 9 9 10 10 11 11 12 13 12 12 11 11 11 11 10 9 10 9 9 8 7 5
4 5 5 4 5 3 4 4 4 4 2 3 3 3 3 2 1 1 1 1 2 2 2 3 4 5 4 6 5 4 4 4 4 5 4 5 5 6 6 6 6 6 6 6 5 5 5 5 6 7 7 6 6 6 7 7 8 8 9 9 9 10 9 8 9 10 11 10 11 12 12 12 12 11 11 11 11 11 10 10 9 9 9 8 5
4 4 4 4 3 4 3 3 3 2 4 4 1 1 3 1 1 1 1 2 4 4 4 4 4 4 6 5 4 5 5 4 6 6 6 6 6 6 6 6 6 7 6 6 6 5 5 6 6 6 7 7 6 6 6 6 6 7 8 9 9 9 9 9 9 10 10 10 10 10 10 10 11 10 10 11 11 11 10 10 9 10 10 8 6
4 4 4 2 3 5 4 2 3 1 1 0 0 1 1 1 1 1 3 3 4 4 4 4 4 4 5 5 5 6 6 5 6 6 7 6 6 6 6 6 6 7 6 6 6 6 6 6 6 6 7 8 8 7 7 6 6 6 7 8 8 8 8 7 8 10 10 9 9 10 11 11 11 11 12 11 10 10 10 10 10 9 9 9 7
4 2 1 2 2 4 2 2 1 0 0 1 1 1 1 2 2 3 4 5 4 5 4 4 4 6 6 5 6 5 6 5 6 6 6 6 6 6 6 6 7 7 7 7 5 6 6 6 6 7 7 7 8 8 8 7 6 6 6 7 8 9 7 7 8 9 9 9 9 9 10 10 11 10 11 11 10 10 10 10 9 9 9 8 7
1 2 2 3 1 1 0 0 0 1 1 1 1 2 3 3 3 4 5 4 3 5 4 5 4 5 5 5 5 5 5 6 6 7 6 6 6 6 6 6 7 7 7 7 6 6 6 6 7 7 7 8 8 8 8 8 7 6 6 7 8 9 11 12 8 9 9 9 7 8 9 10 10 10 10 10 9 9 9 9 9 8 8 7 6
1 2 1 1 0 0 0 0 1 1 1 1 1 2 4 3 4 4 4 4 4 4 4 5 6 5 5 5 6 6 6 7 6 7 6 6 6 7 7 7 7 7 7 8 7 7 7 7 7 7 7 8 8 8 8 8 8 7 7 7 10 17 17 16 10 9 13 10 6 7 8 9 10 10 10 10 9 9 9 8 8 8 8 7 6
1 1 1 0 0 0 1 1 1 1 3 2 2 4 3 4 4 5 5 5 6 5 5 4 5 6 6 6 7 7 6 6 7 7 7 7 7 6 7 7 7 7 7 7 7 7 7 6 7 7 7 8 8 8 7 8 8 8 7 9 16 19 17 17 14 15 12 7 6 5 7 8 9 8 8 8 8 9 9 8 8 8 7 7 6
2 1 0 0 0 0 1 1 3 3 2 3 4 4 5 5 6 6 6 6 6 7 6 6 6 6 6 6 7 6 6 7 7 7 7 7 7 7 7 7 8 7 8 8 8 7 7 6 7 7 7 7 8 8 7 8 7 8 12 18 19 18 17 15 10 12 17 11 4 5 6 7 8 9 8 8 8 8 9 9 8 7 7 6 5
Wind_Direction
179 189 177 191 184 194 196 195 200 194 193 198 198 202 196 187 182 184 144 170 150 149 156 168 173 178 182 190 192 204 203 216 203 191 195 206 210 208 203 204 214 225 211 226 219 212 229 243 249 247 245 249 247 247 245 242 239 243 241 244 244 236 229 241 254 270 271 232 264 266 269 259 271 240 264 258 259 247 243 248 247 246 247 251 251
184 182 184 182 191 194 196 195 195 191 195 196 197 192 188 181 179 148 167 194 157 165 172 180 178 183 187 200 202 209 208 207 204 192 206 217 227 214 211 210 221 229 214 229 219 219 231 243 251 248 243 249 250 249 245 245 246 245 246 239 244 248 226 240 256 262 277 256 262 262 268 212 260 240 254 264 262 254 255 252 242 232 243 249 251
183 178 181 186 193 191 186 191 186 192 192 196 194 192 190 185 164 166 183 190 191 173 188 185 191 186 188 197 200 204 213 213 209 193 204 207 220 227 216 210 217 223 225 230 225 220 232 238 245 241 242 249 251 251 247 252 247 248 254 245 252 251 243 232 253 265 272 277 261 275 267 249 231 268 250 254 260 256 265 260 249 241 237 243 245
176 177 183 191 188 177 183 184 181 188 191 192 188 192 178 180 166 166 185 168 171 196 179 181 172 174 185 198 199 209 213 219 220 204 206 202 214 223 217 216 220 224 227 231 229 222 231 239 241 233 239 252 258 255 250 250 248 249 251 248 245 253 246 241 240 255 274 282 276 257 280 272 270 255 264 266 260 259 247 265 252 246 242 238 241
166 175 175 184 189 183 190 180 182 187 191 177 187 180 177 167 158 163 152 164 181 159 173 155 169 173 190 201 210 215 226 217 213 225 228 218 220 227 223 219 224 228 232 236 231 228 234 236 244 228 230 247 255 253 249 248 250 250 255 253 249 251 250 244 247 246 260 268 278 271 262 270 263 270 257 269 271 259 259 256 257 253 250 242 247
167 165 173 177 188 188 191 180 188 186 183 175 182 185 178 167 171 175 167 176 162 154 166 164 170 186 182 166 140 145 177 224 229 234 236 236 224 221 217 220 230 234 238 234 232 229 233 240 241 230 234 242 255 253 248 249 249 250 254 257 251 252 253 252 249 252 254 264 271 285 270 262 281 258 254 244 260 277 272 261 259 248 252 260 244
167 166 169 175 176 193 188 191 183 179 178 183 176 167 175 178 167 178 165 151 151 154 121 142 307 175 177 130 123 134 43 28 267 277 270 257 242 243 249 242 236 238 238 236 236 232 234 238 240 231 234 237 247 250 251 251 246 249 248 255 251 251 253 254 251 253 256 265 272 266 279 270 245 277 259 220 248 249 273 290 277 239 239 241 259
153 155 159 171 179 190 191 174 163 170 172 163 165 166 152 139 140 122 120 122 139 155 151 158 73 55 156 139 202 134 13 314 304 300 294 281 288 279 270 271 278 275 270 263 250 246 243 244 242 239 236 236 237 244 237 251 247 253 247 246 249 249 254 257 256 255 262 264 266 277 275 279 273 255 267 247 266 259 225 255 275 282 267 249 237
139 141 138 148 177 172 140 128 124 121 118 112 103 104 105 109 96 89 86 88 88 102 108 109 94 47 358 347 326 341 287 258 247 252 284 298 260 267 273 272 267 272 278 280 278 271 266 257 254 252 246 249 244 243 241 239 247 258 252 235 248 247 256 258 257 260 265 265 272 272 276 276 268 274 275 255 249 265 260 224 262 270 277 278 264
112 101 104 105 91 93 95 83 85 89 90 95 98 92 88 82 81 75 69 74 73 74 77 69 81 134 280 308 308 293 260 256 257 259 248 240 267 265 269 265 260 262 274 289 288 278 270 264 260 256 258 257 256 254 252 250 246 246 256 247 247 250 254 258 258 257 263 268 268 276 277 273 271 264 272 266 266 270 268 255 267 278 279 277 277
89 97 89 90 93 85 81 76 75 73 80 80 78 81 77 79 76 71 64 62 67 65 72 66 40 2 232 254 283 292 281 269 274 278 276 272 260 260 260 273 276 278 276 278 282 285 275 263 260 259 261 264 262 258 256 254 254 253 253 252 248 248 259 260 260 256 260 265 270 266 266 274 273 266 264 277 268 261 264 266 269 280 280 290 292
92 85 88 82 74 75 77 73 69 61 66 67 74 78 77 74 72 73 77 69 53 67 64 62 332 288 268 278 272 270 282 277 277 275 272 268 262 248 246 253 264 269 273 273 273 275 279 281 274 268 261 258 264 269 266 263 259 258 257 255 254 249 245 247 262 267 258 264 270 264 262 266 279 274 273 273 275 269 259 252 259 266 273 274 273
85 74 62 66 66 76 80 81 77 69 65 72 73 73 77 74 68 70 60 53 65 72 16 32 318 324 279 268 279 280 270 280 282 286 288 283 276 263 250 247 259 271 272 273 276 281 286 290 295 286 281 280 275 274 274 274 268 264 264 264 261 256 255 252 248 250 264 264 268 272 262 271 279 278 256 264 264 268 268 263 257 258 262 266 270
69 65 62 61 68 75 80 83 79 71 67 64 66 67 68 66 68 71 89 74 76 69 48 28 312 300 286 272 281 296 300 304 313 317 318 312 301 295 280 280 280 279 281 283 284 286 283 290 295 295 292 289 282 282 281 275 276 276 274 267 264 261 255 254 255 256 254 256 264 269 274 264 268 281 281 272 275 276 279 276 274 271 270 267 270
73 74 72 66 67 70 77 80 81 76 71 71 69 66 66 64 57 47 64 71 82 80 66 33 352 333 340 339 340 333 318 317 322 323 323 322 316 316 312 303 289 282 279 276 281 282 291 290 289 290 296 292 284 284 290 289 289 286 282 277 268 264 256 250 251 253 254 252 256 264 274 274 271 276 282 276 262 267 270 276 278 276 277 279 275
75 72 70 63 63 62 78 83 80 77 77 73 75 70 64 61 54 30 52 43 42 52 23 49 23 3 353 356 353 337 332 335 330 326 325 325 331 329 316 291 284 285 284 288 287 290 295 295 296 296 293 294 295 293 291 292 292 291 287 284 281 272 260 241 246 249 249 252 253 260 266 271 274 276 279 279 277 275 273 271 271 271 272 273 275
73 75 74 66 64 61 69 83 82 78 79 81 76 71 66 57 49 49 62 48 48 40 28 14 12 9 2 1 357 337 333 339 343 335 330 331 337 326 313 303 297 294 294 291 289 290 292 290 289 293 297 297 299 300 302 302 295 293 290 289 286 282 278 268 251 253 255 256 258 261 266 271 275 278 278 278 276 275 278 277 272 272 263 264 269
73 74 72 66 66 67 67 77 84 84 82 78 78 75 72 71 60 40 65 52 43 33 18 26 23 17 9 358 359 348 332 335 342 342 340 334 331 325 321 321 304 298 296 282 272 284 275 282 292 297 304 306 313 315 313 309 298 296 295 294 295 293 288 285 274 258 250 256 262 266 269 272 274 274 275 275 274 273 271 270 273 276 270 268 276
71 76 75 73 72 71 73 77 79 82 79 74 73 67 58 58 56 55 65 65 59 43 34 34 24 20 15 356 350 359 341 339 346 348 348 346 344 330 328 320 305 304 313 319 307 278 302 306 309 311 315 315 319 320 318 319 308 305 301 298 296 293 295 301 295 294 291 285 275 276 271 267 267 266 267 268 267 267 260 261 266 264 262 268 270
78 81 82 76 75 68 67 73 70 69 68 66 58 59 54 56 43 50 46 54 51 43 41 39 32 15 5 9 4 8 8 358 358 359 358 354 352 350 325 330 338 337 344 343 338 345 353 341 336 333 323 318 316 316 315 312 306 301 301 297 296 295 305 301 293 291 292 291 288 282 277 275 272 267 264 262 258 252 254 253 256 256 259 266 265
77 80 78 74 67 65 58 61 64 57 52 51 58 55 43 45 38 42 43 37 50 46 41 38 34 21 8 10 21 26 29 17 6 11 13 14 15 14 1 4 355 350 348 346 346 341 337 335 329 321 318 316 314 311 308 306 305 299 296 289 288 296 302 300 300 299 293 291 288 286 282 276 269 263 261 259 256 253 250 249 250 249 252 258 261
77 81 77 71 68 60 56 52 52 53 43 44 53 52 34 38 42 42 39 42 48 48 40 36 38 31 20 24 40 33 21 20 12 17 24 21 18 13 13 0 356 349 343 341 335 330 325 325 320 314 314 312 311 309 307 307 306 302 291 297 301 304 302 296 296 296 292 290 288 286 285 281 278 275 270 266 261 258 255 252 246 245 239 242 248
78 81 75 70 65 60 54 51 47 44 43 39 53 52 36 37 33 37 39 40 44 44 38 32 33 35 31 30 34 27 14 9 7 9 16 11 5 0 356 354 350 350 337 326 325 313 309 305 303 301 306 311 310 308 307 307 307 297 300 305 304 298 296 295 292 291 289 288 288 286 287 287 288 287 283 281 274 267 261 252 249 245 243 245 244
79 77 71 66 62 56 51 49 48 43 42 39 51 54 41 38 41 41 37 43 42 42 34 31 29 35 31 23 21 17 8 8 359 354 12 6 355 351 346 342 339 330 324 308 308 302 301 300 295 300 307 307 305 308 311 311 305 306 305 297 290 290 291 289 285 284 284 284 284 285 287 289 290 290 290 289 288 283 272 263 258 252 250 250 254
76 71 65 60 58 54 53 52 48 43 41 44 54 48 43 39 49 32 41 41 45 48 37 35 35 31 28 22 9 4 357 354 352 345 359 346 339 333 331 327 325 324 312 300 295 295 297 299 304 307 305 303 305 306 303 297 296 292 289 289 290 290 289 286 285 285 283 284 285 287 289 292 294 293 293 294 295 292 283 268 257 257 266 280 271
74 69 66 61 56 52 64 56 50 47 44 43 52 47 52 41 54 42 43 45 44 48 38 38 40 37 24 13 359 350 342 344 342 342 335 326 317 318 319 317 309 307 301 294 295 301 306 307 305 304 302 302 302 301 300 296 295 291 288 286 285 282 279 285 286 289 289 292 294 294 295 297 296 296 297 295 292 285 281 273 267 258 250 262 278
80 72 67 63 54 51 64 58 51 45 42 40 43 47 47 46 49 48 41 41 35 37 40 34 35 25 9 357 351 347 343 343 341 333 333 328 323 324 324 322 318 315 311 309 307 305 301 301 301 302 299 299 295 290 287 290 292 289 288 279 273 276 282 286 292 294 294 294 293 291 293 293 293 294 294 294 289 286 275 268 265 268 256 262 259
82 78 70 64 59 51 58 53 53 52 44 45 47 42 40 45 45 43 40 25 27 25 26 20 15 2 345 346 349 349 350 350 344 342 346 347 345 342 337 331 327 320 313 310 307 304 302 301 301 296 295 295 298 299 300 297 295 302 306 311 308 302 299 294 290 287 285 285 286 289 290 293 294 294 295 293 290 287 278 263 263 268 264 245 272
84 81 74 66 64 57 63 62 57 62 59 50 43 44 45 27 42 35 32 55 31 27 23 6 6 359 0 350 352 351 351 351 358 357 351 347 341 337 330 325 315 309 308 314 314 308 302 301 299 306 309 311 313 312 311 309 308 309 309 311 315 314 312 312 308 302 298 296 294 294 295 296 295 296 292 290 287 285 267 262 261 263 271 228 244
84 78 70 71 65 63 68 68 61 57 52 49 49 35 36 48 45 45 18 21 33 35 41 25 19 7 15 4 360 356 2 1 355 353 348 343 338 333 329 327 327 326 326 328 326 317 315 314 313 313 312 313 316 316 319 324 324 323 323 321 319 316 315 314 309 307 303 301 298 294 293 293 293 294 292 290 289 281 262 251 262 255 255 250 255
91 87 81 75 69 67 68 66 60 58 53 49 43 54 40 31 40 39 35 27 32 39 39 35 29 25 20 6 17 18 7 359 354 348 343 341 342 343 342 339 338 338 338 339 343 334 329 327 325 326 331 335 336 339 339 336 335 330 326 325 324 323 322 316 314 309 307 303 299 293 290 288 289 292 292 291 289 288 277 254 253 250 245 252 256
100 93 82 72 66 65 61 66 61 60 55 50 50 48 39 45 31 39 37 36 40 44 41 33 28 25 25 30 23 6 2 356 351 348 351 354 352 349 345 343 346 347 346 350 334 330 328 327 336 340 338 338 338 336 333 333 329 329 327 324 323 325 325 322 318 313 307 302 299 297 295 292 291 291 290 288 286 284 274 264 245 247 251 250 249
86 85 82 79 71 74 69 67 69 71 69 63 60 56 56 43 34 13 34 44 46 47 41 34 28 25 25 24 16 7 360 356 356 1 3 1 359 355 353 354 1 358 2 0 352 350 347 350 345 346 343 337 333 332 332 327 326 325 326 322 324 325 322 322 320 312 308 304 300 297 299 296 295 293 289 286 284 281 276 261 255 246 250 254 253
81 84 79 78 87 85 93 84 88 74 76 72 73 71 57 57 48 35 24 9 28 38 41 32 26 25 23 18 9 3 2 1 5 8 8 6 4 2 3 9 12 12 18 5 2 355 354 348 346 342 338 334 332 331 331 336 339 332 328 327 317 317 324 321 318 321 323 319 314 307 301 298 296 295 292 289 279 275 272 263 251 247 247 243 247
78 83 91 99 104 110 100 102 88 89 79 71 63 59 57 51 47 42 36 32 23 13 1 4 11 18 20 13 6 4 4 4 9 9 10 8 8 8 10 15 15 12 18 12 9 357 357 350 345 342 338 337 334 330 340 344 335 334 329 325 325 327 325 323 323 327 328 326 324 322 319 313 303 294 291 291 292 282 271 261 252 240 247 248 240
97 108 93 100 109 117 96 89 87 76 69 60 58 55 58 53 53 47 44 40 37 22 9 360 358 1 8 10 7 3 5 4 9 9 11 11 12 12 17 11 11 5 5 1 359 357 354 348 345 340 338 336 333 335 342 338 334 330 328 329 330 325 321 322 328 330 329 327 326 329 328 325 321 310 297 287 279 277 273 266 257 249 243 244 235
105 109 119 106 99 75 72 65 59 64 69 61 57 58 58 61 56 56 45 43 36 28 19 351 350 350 2 7 4 359 3 1 9 9 15 16 19 22 21 11 3 356 355 355 352 352 351 348 344 337 337 336 334 335 337 334 332 330 330 331 325 324 326 332 333 333 330 330 331 331 330 326 326 324 317 304 292 282 273 268 262 253 247 243 235
121 114 111 92 65 66 58 59 64 69 63 56 57 64 67 64 58 47 45 32 29 23 15 2 7 358 355 347 351 351 1 352 5 10 16 17 20 19 18 9 7 359 353 348 346 345 341 338 339 337 332 332 332 334 334 333 333 333 332 329 329 328 332 332 335 336 337 336 335 333 330 328 326 325 325 320 309 297 287 276 265 260 256 241 225
70 90 89 87 79 69 67 69 69 64 61 58 58 61 60 59 50 46 40 33 21 16 8 1 2 0 340 329 325 348 6 360 9 6 1 5 11 10 9 6 358 355 346 343 338 338 332 332 332 330 326 326 328 328 329 331 331 331 332 329 330 330 335 339 340 343 341 337 331 328 325 323 324 323 322 319 320 315 305 292 275 263 255 248 230
75 66 78 75 64 73 73 75 70 66 64 64 59 61 63 64 55 62 28 40 9 11 353 359 343 332 319 319 336 2 19 0 354 349 344 348 351 355 354 354 350 343 340 334 332 326 324 320 322 321 320 318 320 321 324 327 328 329 331 332 332 330 333 337 337 336 335 333 330 327 325 323 322 319 318 320 322 322 318 309 297 277 264 256 250
69 71 71 80 77 73 73 72 67 66 65 66 66 67 61 63 48 48 38 28 1 349 339 335 322 310 309 336 350 358 36 349 324 323 322 327 325 329 328 328 322 325 324 325 323 322 318 316 317 318 318 320 321 322 322 321 320 324 325 328 329 329 329 332 333 333 330 330 329 326 324 323 322 321 323 324 324 321 315 314 306 295 279 264 255
76 75 75 69 72 78 76 70 67 62 70 63 53 57 61 52 43 47 27 5 353 338 331 317 313 305 322 333 340 342 352 315 305 305 302 306 302 302 303 301 293 286 292 298 305 313 316 316 315 317 318 322 324 324 323 322 322 322 320 318 325 326 327 328 330 329 329 327 326 325 324 324 321 320 319 322 321 321 317 316 313 308 296 278 263
74 78 77 75 78 74 77 77 72 67 48 52 41 40 43 51 39 27 13 349 327 316 314 316 309 314 311 310 318 324 319 295 289 298 293 292 296 296 297 293 293 284 280 279 282 285 300 304 307 310 314 315 318 320 323 319 320 317 316 315 317 319 321 324 329 329 329 327 325 323 323 320 319 318 319 322 323 319 319 317 317 314 307 293 278
71 70 70 75 71 68 72 76 60 51 54 38 46 31 28 32 15 0 341 308 305 286 280 278 276 284 282 291 303 304 290 289 293 285 292 296 298 298 297 295 296 297 293 292 291 294 296 301 300 302 302 303 307 309 310 315 316 317 316 315 315 322 322 323 329 329 326 322 322 322 320 317 317 318 320 325 326 324 323 323 320 319 315 307 292
67 69 69 67 67 73 51 47 66 51 33 39 26 6 0 13 331 292 290 282 278 280 271 264 269 273 281 287 291 289 290 292 293 297 295 293 295 294 296 297 296 299 297 296 292 299 298 296 298 298 303 303 306 302 305 305 310 310 312 310 310 317 318 325 330 325 319 316 320 320 318 316 315 317 319 324 325 325 324 324 324 322 318 313 299
67 67 73 81 72 63 57 37 55 59 56 57 93 281 299 315 296 280 274 266 269 266 266 268 269 273 279 287 288 294 295 297 293 290 290 294 291 293 291 295 293 293 291 288 291 292 293 290 295 295 297 298 303 303 302 301 301 304 304 302 304 304 307 317 325 319 317 317 321 322 319 316 314 315 319 322 322 323 322 322 325 326 322 318 309
62 63 82 84 78 64 62 66 69 24 67 4 347 327 300 284 272 265 262 263 265 268 278 280 286 290 291 290 293 293 295 298 297 297 291 287 289 288 293 292 295 292 292 290 288 288 290 291 290 291 292 293 295 298 297 299 296 298 298 301 298 300 304 319 320 318 313 315 320 323 320 316 313 316 319 322 322 323 325 325 330 326 328 324 324
53 77 73 69 79 97 91 91 29 0 36 322 285 274 273 271 275 267 267 268 272 277 282 286 283 281 290 292 289 291 292 291 290 288 289 288 285 285 287 290 290 290 290 293 291 289 285 286 286 288 288 292 293 294 295 295 294 291 294 295 298 295 311 318 318 315 315 314 319 323 320 318 313 314 316 320 321 323 324 327 329 329 329 329 330
111 79 76 85 117 116 149 353 230 235 242 251 274 281 275 274 269 269 273 276 278 276 273 282 290 295 293 289 292 294 292 294 293 293 290 287 287 287 284 285 286 288 289 288 289 289 285 285 284 284 284 287 287 287 292 293 294 293 293 295 293 298 309 318 319 317 315 313 320 327 323 319 316 314 317 320 321 321 320 321 326 326 328 331 334
87 84 100 91 105 249 196 164 226 245 260 266 256 266 275 275 282 280 279 283 284 281 281 278 279 284 288 293 298 295 296 295 295 294 294 292 291 289 290 289 288 286 285 285 287 287 287 283 285 285 286 283 285 285 285 287 288 290 291 289 295 304 310 313 316 319 318 312 325 329 323 315 315 313 315 315 318 320 323 325 326 327 327 333 336
69 82 62 116 237 255 283 288 284 273 265 262 265 270 276 277 273 274 281 280 280 282 283 281 281 283 281 273 276 282 285 283 282 283 287 289 291 293 292 293 292 293 290 289 289 286 285 287 286 287 286 286 286 286 286 284 286 286 290 296 302 306 308 309 312 318 317 317 328 333 327 323 319 319 322 323 322 322 326 326 326 329 329 329 329